[[{"header":{"parameterUnit":"m.s-1","parameterCategory":1,"la1":30.2991,"la2":30.254,"lo1":-89.0895,"lo2":-89.0444,"dy":0.0017,"dx":0.0017,"nx":28,"ny":28,"refTime":"2023-08-09T21:00:00:Z","depth":0,"parameterNumber":2,"parameterNumberName":"U-component_of_WINDS"},"data":[0,0,0,0,0,0,0,0,0,0,0,0,0,0,0,0,0,0,0,0,0,0,0,0,0,0,0,0,0,0,0,0,0,0,0,0,0,0,0,0,0,0,0,0,0,0,0,0,0,0,0,0,0,0,0,0,0,0,4.7275,4.7276,0,4.7379,4.738,4.7381,4.7312,4.7309,4.7306,4.7303,4.741,4.7416,4.7422,0,0,0,0,0,0,0,0,0,0,0,0,0,4.7014,4.702,4.7275,4.7276,4.7277,4.7379,4.738,4.7382,4.7313,4.7309,4.7305,4.7301,4.7408,4.7415,4.7422,0,0,0,0,0,0,0,0,0,0,0,0,0,4.7124,4.7021,4.7275,4.7255,4.7255,4.7379,4.738,4.7382,4.7314,4.7309,4.7304,4.73,4.7406,4.7414,4.7423,4.7572,0,0,4.745,4.7453,0,0,0,0,0,0,0,0,4.7118,4.7134,4.7257,4.7257,4.7256,4.7328,4.7328,4.7446,4.7315,4.7291,4.7303,4.7297,4.7387,4.7397,4.7427,4.7577,4.7582,4.745,4.7456,4.7459,4.7462,0,0,0,0,0,0,0,4.711,4.7129,4.7316,4.7259,4.7258,4.7241,4.7251,4.735,4.7364,4.7293,4.7288,4.7301,4.7385,4.7418,4.7429,4.7583,4.745,4.7458,4.7463,4.7467,4.7857,4.7862,0,0,0,0,0,0,4.7105,4.7123,4.7313,4.7319,4.7174,4.7249,4.7261,4.731,4.7363,4.7367,4.7305,4.7298,4.7406,4.7419,4.7432,4.7607,4.7459,4.7468,4.7473,4.7852,4.7858,4.7864,0,0,0,0,0,0,4.7099,4.7122,4.7309,4.722,4.7242,4.7259,4.7314,4.7314,4.7347,4.7372,4.7375,4.7336,4.7403,4.742,4.7537,4.7609,4.7471,4.7479,4.7846,4.7854,4.7861,4.7959,0,0,0,0,0,0,4.7092,4.7121,4.7178,4.7222,4.7247,4.7412,4.7319,4.732,4.7362,4.7353,4.7402,4.7406,4.74,4.7524,4.7545,4.7619,4.7486,4.7839,4.7849,4.7859,4.7949,4.7969,4.7986,0,0,0,0,0,4.7083,4.7203,4.7181,4.7205,4.7319,4.7417,4.7431,4.7422,4.7368,4.7425,4.7441,4.7404,4.7599,4.7537,4.756,4.7637,4.7835,4.7847,4.7858,4.7941,4.7965,4.7986,0,0,0,0,0,0,4.7168,4.7208,4.7185,4.7322,4.7366,4.7405,4.7476,4.7449,4.7509,4.7499,4.7485,4.7497,4.7618,4.764,4.757,4.7783,4.7708,4.7725,4.7763,4.7787,4.7805,4.7796,4.7493,0,0,0,0,0,4.7202,4.7278,4.7309,4.7427,4.7451,4.746,4.7502,4.7491,4.7537,4.7555,4.758,4.7625,4.7696,4.7743,4.781,4.7953,4.7961,4.8018,4.8036,4.8051,4.8065,4.8138,4.8163,4.7902,4.7902,4.7901,0,0,4.7275,4.7306,4.7355,4.7445,4.7478,4.7556,4.7476,4.7563,4.762,4.7568,4.7679,4.7699,4.7748,4.7878,4.7936,4.79,4.8139,4.8066,4.8078,4.8083,4.8153,4.8177,4.8199,4.791,4.7908,4.7907,0,0,4.7445,4.7478,4.7578,4.7612,4.7663,4.7668,4.7692,4.7734,4.7745,4.7856,4.7818,4.7886,4.801,4.8045,4.8079,4.8261,4.8228,4.8284,4.8379,4.8451,4.8471,4.8489,4.855,4.8573,4.8298,4.8299,4.8299,0,4.7528,4.7644,4.7633,4.7721,4.7761,4.7717,4.7817,4.7851,4.7922,4.7949,4.7908,4.8059,4.809,4.8225,4.8269,4.83,4.8325,4.8277,4.8469,4.8487,4.8504,4.8562,4.8586,4.8305,4.8304,4.8303,4.8303,0,4.7742,4.7823,4.7897,4.7964,4.8013,4.8107,4.8109,4.8159,4.8144,4.8153,4.8265,4.8301,4.8372,4.8404,4.8391,4.8537,4.8512,4.8471,4.8395,4.8535,4.8589,4.8612,4.8313,4.8311,4.8309,4.8308,0,0,4.7968,4.8026,4.8054,4.8082,4.8134,4.8196,4.8287,4.8356,4.8398,4.8448,4.8522,4.8627,4.8587,4.8627,4.8617,4.8681,4.8818,4.8631,4.8631,4.8661,4.8976,4.9005,4.9031,4.8797,4.8802,4.8805,4.8971,0,4.8138,4.8296,4.8288,4.8436,4.8508,4.8468,4.8547,4.8586,4.8597,4.866,4.8672,4.8745,4.869,4.8712,4.8774,4.8788,4.888,4.8777,4.8864,4.8867,4.8849,4.906,4.9091,4.9246,4.8993,4.8996,4.8999,0,4.8358,4.8413,4.8568,4.8606,4.8636,4.8707,4.8768,4.883,4.8873,4.8876,4.8919,4.8899,4.8989,4.8913,4.9036,4.8966,4.9001,4.9014,4.902,4.9025,4.8939,4.9067,4.9296,4.9317,4.9033,4.903,4.9028,0,4.8502,4.8616,4.8722,4.8748,4.8796,4.8846,4.8869,4.8908,4.8949,4.9003,4.9029,4.9094,4.9128,4.9178,4.9174,4.912,4.9298,4.9223,4.9301,4.9301,4.9338,4.9335,4.9571,4.9367,4.9367,4.9367,4.9366,0,4.8691,4.8786,4.8787,4.8852,4.8956,4.8946,4.905,4.9067,4.9102,4.9168,4.9139,4.9201,4.9195,4.9258,4.9257,4.9357,4.9374,4.9377,4.9375,4.9378,4.9377,4.9398,4.9386,4.9373,4.9371,4.937,4.9369,0,4.8868,4.8873,4.8985,4.9021,4.9032,4.9108,4.9138,4.9199,4.9207,4.9291,4.931,4.9323,4.9396,4.9398,4.9483,4.9481,4.9602,4.959,4.9586,4.9583,4.9659,4.965,4.9915,4.9947,4.9726,4.9728,4.973,0,4.8987,4.9059,4.9102,4.9144,4.9169,4.9238,4.9279,4.9271,4.9315,4.9369,4.9423,4.9493,4.9547,4.9665,4.9681,4.9745,4.9731,4.982,4.9741,4.974,4.9728,4.9722,4.9728,4.9834,4.9837,4.9839,4.984,0,4.9195,4.9193,4.9254,4.9315,4.9365,4.9413,4.9457,4.9493,4.949,4.9541,4.9614,4.9657,4.9742,4.981,4.9871,4.9893,4.9866,4.9865,4.9886,4.9888,4.9881,4.9882,4.9624,4.9859,4.9857,4.9855,4.9854,4.9854,4.9344,4.9405,4.9443,4.9511,4.9543,4.9585,4.9642,4.9657,4.9718,4.9785,4.9778,4.9858,4.9898,4.9977,5.0004,5.0066,5.0036,5.0067,5.0074,5.0081,5.0087,4.9874,5.0078,5.0078,5.0077,5.0077,5.0076,0,4.9547,4.957,4.9632,4.9694,4.9747,4.9717,4.9764,4.9809,4.988,4.992,4.9974,5.0056,5.0122,5.0143,5.0207,5.0252,5.0241,5.0269,5.0263,5.0268,5.0113,5.0086,5.0276,5.0276,5.0276,5.0276,5.0276,5.0276,4.9659,4.9758,4.9761,4.9875,4.9897,4.9975,5.0004,5.0041,5.0072,5.0165,5.022,5.0233,5.0264,5.0329,5.0387,5.0392,5.0415,5.0447,5.0446,5.03,5.028,5.026,5.0235,5.0453,5.0454,5.0596,5.0597,5.0598]},{"header":{"parameterUnit":"m.s-1","parameterCategory":1,"la1":30.2991,"la2":30.254,"lo1":-89.0895,"lo2":-89.0444,"dy":0.0017,"dx":0.0017,"nx":28,"ny":28,"refTime":"2023-08-09T21:00:00:Z","depth":0,"parameterNumber":3,"parameterNumberName":"V-component_of_WINDS"},"data":[0,0,0,0,0,0,0,0,0,0,0,0,0,0,0,0,0,0,0,0,0,0,0,0,0,0,0,0,0,0,0,0,0,0,0,0,0,0,0,0,0,0,0,0,0,0,0,0,0,0,0,0,0,0,0,0,0,0,2.5001,2.5001,0,2.5027,2.5027,2.5027,2.4992,2.4991,2.4989,2.4988,2.5014,2.5016,2.5018,0,0,0,0,0,0,0,0,0,0,0,0,0,2.4919,2.4921,2.5001,2.5001,2.5001,2.5027,2.5027,2.5027,2.4992,2.4991,2.4989,2.4988,2.5014,2.5016,2.5018,0,0,0,0,0,0,0,0,0,0,0,0,0,2.4951,2.4921,2.5001,2.4987,2.4986,2.5026,2.5027,2.5027,2.4993,2.4991,2.4989,2.4987,2.5013,2.5016,2.5019,2.5074,0,0,2.5027,2.5028,0,0,0,0,0,0,0,0,2.4949,2.4954,2.4989,2.4988,2.4987,2.5004,2.5008,2.5043,2.4993,2.499,2.4988,2.4986,2.5013,2.5015,2.5024,2.5075,2.5076,2.5027,2.5029,2.503,2.5031,0,0,0,0,0,0,0,2.4947,2.4952,2.5011,2.4989,2.4988,2.4979,2.4981,2.5014,2.5012,2.499,2.4988,2.4991,2.5012,2.5022,2.5025,2.5077,2.5027,2.503,2.5032,2.5033,2.5171,2.5173,0,0,0,0,0,0,2.4946,2.4951,2.501,2.5012,2.4963,2.4982,2.4984,2.5,2.5011,2.5011,2.4993,2.4989,2.5018,2.5021,2.5025,2.5089,2.503,2.5033,2.5035,2.5169,2.5172,2.5174,0,0,0,0,0,0,2.4945,2.4952,2.5009,2.498,2.4987,2.4985,2.5003,2.5002,2.5012,2.5013,2.5012,2.5004,2.5016,2.5021,2.5061,2.5089,2.5034,2.5037,2.5167,2.517,2.5173,2.5218,0,0,0,0,0,0,2.4942,2.4952,2.4973,2.4981,2.4989,2.5045,2.5005,2.5004,2.5017,2.5013,2.5023,2.5023,2.5015,2.5057,2.5064,2.5092,2.5039,2.5164,2.5168,2.5172,2.5214,2.5222,2.5229,0,0,0,0,0,2.494,2.4985,2.4974,2.4982,2.5016,2.5047,2.5051,2.5042,2.5019,2.504,2.5041,2.5023,2.5086,2.5062,2.5069,2.5099,2.5163,2.5167,2.5172,2.521,2.522,2.5229,0,0,0,0,0,0,2.4981,2.4986,2.4974,2.5024,2.5035,2.5041,2.5068,2.5053,2.5071,2.5067,2.5054,2.5056,2.5099,2.5103,2.5076,2.5151,2.512,2.5126,2.5147,2.5157,2.5164,2.5162,2.5041,0,0,0,0,0,2.4996,2.5021,2.5024,2.5068,2.5074,2.507,2.5083,2.5075,2.5086,2.5091,2.5094,2.5106,2.5127,2.5142,2.5163,2.5214,2.5215,2.5238,2.5246,2.5252,2.5257,2.5282,2.5292,2.5189,2.5189,2.5189,0,0,2.5027,2.5033,2.505,2.5076,2.5084,2.5109,2.5074,2.5104,2.5122,2.5095,2.5133,2.5136,2.5147,2.5193,2.5213,2.5197,2.5286,2.5257,2.5262,2.5264,2.5288,2.5298,2.5307,2.5192,2.5191,2.5191,0,0,2.5096,2.5104,2.514,2.5148,2.516,2.5156,2.5165,2.5173,2.5174,2.5211,2.5191,2.5213,2.5251,2.526,2.5269,2.534,2.5323,2.5347,2.5386,2.5411,2.5419,2.5426,2.545,2.5459,2.5352,2.5352,2.5352,0,2.5133,2.5171,2.516,2.519,2.5201,2.5178,2.5213,2.5222,2.524,2.5248,2.5231,2.5277,2.5284,2.533,2.5347,2.5356,2.5364,2.5346,2.5419,2.5426,2.5433,2.5455,2.5464,2.5355,2.5355,2.5355,2.5354,0,2.5215,2.5242,2.5269,2.5287,2.5301,2.5334,2.5327,2.5343,2.5333,2.5331,2.5369,2.5375,2.5396,2.5406,2.5397,2.5451,2.544,2.5421,2.5389,2.5445,2.5466,2.5475,2.5359,2.5358,2.5357,2.5357,0,0,2.5312,2.5321,2.5331,2.5338,2.5349,2.5369,2.54,2.542,2.5433,2.5446,2.5471,2.5503,2.5485,2.5496,2.5487,2.5509,2.5562,2.5487,2.5487,2.55,2.562,2.5633,2.5643,2.5551,2.5553,2.5554,2.5618,0,2.538,2.5433,2.5423,2.5475,2.5498,2.5475,2.5502,2.5511,2.551,2.5529,2.5528,2.555,2.5525,2.5531,2.5552,2.5552,2.5586,2.5547,2.5573,2.5574,2.557,2.5654,2.5669,2.5729,2.5626,2.5628,2.5629,0,2.5466,2.5481,2.5536,2.554,2.555,2.5574,2.559,2.5609,2.5619,2.5616,2.5627,2.5614,2.5643,2.5612,2.5652,2.5625,2.5635,2.5636,2.5638,2.564,2.5604,2.5657,2.5748,2.5756,2.5642,2.5641,2.564,0,2.5529,2.5564,2.56,2.5606,2.5613,2.5631,2.5634,2.5642,2.5653,2.5667,2.5675,2.5692,2.5702,2.5715,2.5707,2.5685,2.5747,2.5715,2.5745,2.5745,2.5759,2.5758,2.5852,2.5768,2.5767,2.5767,2.5767,0,2.5606,2.5639,2.5628,2.565,2.5686,2.5674,2.571,2.5711,2.5717,2.5738,2.572,2.574,2.5728,2.5747,2.574,2.5773,2.5778,2.5776,2.5774,2.5777,2.5777,2.5783,2.5778,2.577,2.5769,2.5769,2.5768,0,2.5682,2.5676,2.5714,2.5717,2.5718,2.5745,2.5747,2.5767,2.5764,2.5791,2.5796,2.5792,2.5813,2.5806,2.5829,2.5824,2.5866,2.5859,2.5862,2.586,2.589,2.5886,2.599,2.6002,2.5911,2.5912,2.5913,0,2.5731,2.5756,2.5761,2.5774,2.5779,2.58,2.5811,2.5799,2.5812,2.5823,2.5842,2.5861,2.5876,2.5911,2.5909,2.5926,2.5918,2.5953,2.5921,2.5923,2.5917,2.5915,2.5917,2.596,2.5961,2.5962,2.5962,0,2.5817,2.5812,2.583,2.5845,2.5859,2.5872,2.5882,2.5893,2.5882,2.5897,2.5918,2.593,2.5952,2.5971,2.5986,2.599,2.5974,2.5972,2.598,2.5983,2.5984,2.5982,2.5879,2.597,2.5969,2.5969,2.5968,2.5968,2.588,2.59,2.5907,2.5926,2.5932,2.5942,2.596,2.5959,2.5976,2.5993,2.5986,2.601,2.6016,2.6035,2.604,2.6058,2.6044,2.6056,2.6058,2.6061,2.6064,2.5982,2.6061,2.6061,2.606,2.606,2.606,0,2.5964,2.5966,2.5984,2.5998,2.6013,2.5997,2.6007,2.602,2.6042,2.6049,2.6064,2.6087,2.6105,2.6104,2.6121,2.6135,2.6128,2.614,2.6138,2.6138,2.6076,2.6067,2.6145,2.6145,2.6145,2.6145,2.6145,2.6145,2.6009,2.6042,2.6037,2.6073,2.6075,2.6098,2.6105,2.6113,2.6119,2.6145,2.616,2.6159,2.6163,2.6179,2.6194,2.6194,2.62,2.6214,2.621,2.6152,2.6143,2.6135,2.6127,2.6216,2.6216,2.6271,2.6272,2.6272]}]]